This demonstration page uses our WeatherBlox Daily Observations layout. Learn more.

Left ArrowRight Arrow

34.16533, -84.80231

Hourly Observations for July 29, 2016

Temp ( °F °C ) Dew Point ( °F °C ) Humidity (%) Winds ( mph kmh ) Pressure ( in mb ) Visibility ( mi km ) Precip ( " mm )
12:53 am 00:53 Partly Cloudy 74 23.3 71 21.7 91 91 Calm 29.97 1015 10 16 0.00 0.00
1:01 am 01:01 Mostly Cloudy 74 23.3 72 22.2 94 94 Calm 30.00 1016 8 13 0.00 0.00
1:17 am 01:17 Partly Cloudy with Mist and Fog 73 22.8 71 21.7 94 94 Calm 30.00 1016 6 10 0.00 0.00
1:37 am 01:37 Mostly Cloudy 73 22.8 71 21.7 94 94 Calm 30.03 1017 8 13 0.00 0.00
1:53 am 01:53 Mostly Cloudy 73 22.8 71 21.7 94 94 Calm 29.97 1015 9 14 0.00 0.00
2:07 am 02:07 Partly Cloudy 73 22.8 71 21.7 94 94 Calm 30.03 1017 9 14 0.00 0.00
2:53 am 02:53 Partly Cloudy 73 22.8 71 21.7 94 94 Calm 29.98 1015 9 14 0.00 0.00
3:03 am 03:03 Mostly Cloudy 73 22.8 71 21.7 94 94 Calm 30.03 1017 9 14 0.00 0.00
3:17 am 03:17 Cloudy 74 23.3 71 21.7 91 91 Calm 30.03 1017 9 14 0.00 0.00
3:25 am 03:25 Cloudy 73 22.8 71 21.7 94 94 Calm 30.03 1017 9 14 0.00 0.00
3:34 am 03:34 Cloudy 74 23.3 72 22.2 94 94 Calm 30.03 1017 9 14 0.00 0.00
3:53 am 03:53 Cloudy 73 22.8 72 22.2 96 96 Calm 29.98 1015 9 14 0.00 0.00
4:19 am 04:19 Mostly Cloudy 73 22.8 71 21.7 94 94 Calm 30.03 1017 8 13 0.00 0.00
4:53 am 04:53 Mostly Cloudy 73 22.8 71 21.7 94 94 Calm 29.98 1015 10 16 0.00 0.00
5:28 am 05:28 Cloudy 73 22.8 72 22.2 96 96 Calm 30.03 1017 10 16 0.00 0.00
5:53 am 05:53 Cloudy 74 23.3 71 21.7 91 91 Calm 29.99 1016 10 16 0.00 0.00
6:28 am 06:28 Mostly Cloudy 73 22.8 71 21.7 94 94 Calm 30.03 1017 9 14 0.00 0.00
6:41 am 06:41 Partly Cloudy 73 22.8 71 21.7 94 94 Calm 30.03 1017 9 14 0.00 0.00
6:53 am 06:53 Mostly Sunny 73 22.8 71 21.7 94 94 Calm 29.99 1016 8 13 0.00 0.00
7:53 am 07:53 Mostly Cloudy 74 23.3 72 22.2 94 94 SSW 3 6 30.00 1016 10 16 0.00 0.00
8:35 am 08:35 Partly Cloudy 76 24.4 72 22.2 88 88 Calm 30.03 1017 10 16 0.00 0.00
8:53 am 08:53 Sunny 77 25 72 22.2 85 85 Calm 30.01 1016 10 16 0.00 0.00
9:28 am 09:28 Mostly Cloudy 79 26.1 73 22.8 82 82 VRB 5 7 30.00 1016 10 16 0.00 0.00
9:53 am 09:53 Cloudy 78 25.6 73 22.8 85 85 Calm 30.00 1016 10 16 0.00 0.00
10:14 am 10:14 Cloudy 79 26.1 73 22.8 82 82 VRB 3 6 30.00 1016 10 16 0.00 0.00
10:50 am 10:50 Partly Cloudy 82 28 73 23 74 74 VRB 6 9 30.00 1016 10 16 0.00 0.00
10:53 am 10:53 Partly Cloudy 82 27.8 72 22.2 72 72 VRB 3 6 30.00 1016 10 16 0.00 0.00
11:01 am 11:01 Mostly Cloudy 83 28.3 73 22.8 72 72 VRB 3 6 30.00 1016 10 16 0.00 0.00
11:29 am 11:29 Mostly Cloudy 83 28.3 72 22.2 70 70 undefined N/A 30.00 1016 10 16 0.00 0.00
11:53 am 11:53 Mostly Cloudy 84 28.9 72 22.2 67 67 VRB 3 6 30.00 1016 10 16 0.00 0.00
12:53 pm 12:53 Partly Cloudy 87 30.6 72 22.2 61 61 VRB 3 6 29.99 1016 10 16 0.00 0.00
1:53 pm 13:53 Mostly Sunny 89 31.7 69 20.6 52 52 undefined N/A 29.97 1015 10 16 0.00 0.00
2:53 pm 14:53 Mostly Cloudy 86 30 69 20.6 57 57 VRB 3 6 29.96 1015 8 13 0.00 0.00
3:53 pm 15:53 Partly Cloudy 85 29.4 74 23.3 70 70 VRB 6 9 29.94 1014 10 16 0.03 0.76
4:53 pm 16:53 Partly Cloudy 88 31.1 70 21.1 55 55 NW 3 6 29.93 1014 10 16 0.00 0.00
5:53 pm 17:53 Mostly Cloudy 85 29.4 70 21.1 61 61 N 10 17 29.94 1014 10 16 0.00 0.00
6:53 pm 18:53 Partly Cloudy 83 28.3 72 22.2 70 70 E 3 6 29.95 1014 10 16 0.00 0.00
7:53 pm 19:53 Sunny 83 28.3 73 22.8 72 72 SSE 3 6 29.94 1014 10 16 0.00 0.00
8:53 pm 20:53 Clear 79 26.1 75 23.9 88 88 Calm 29.95 1014 10 16 0.00 0.00
9:53 pm 21:53 Clear 79 26.1 74 23.3 85 85 Calm 29.96 1015 10 16 0.00 0.00
10:53 pm 22:53 Clear 77 25 74 23.3 90 90 Calm 29.99 1016 10 16 0.00 0.00
11:53 pm 23:53 Cloudy 77 25 74 23.3 90 90 Calm 29.98 1015 10 16 0.00 0.00

Powered by AerisWeather